AirNav   Everest Fuels
 
 556 users online  

CO12 Van Aire Airport
Brighton, Colorado, USA

GOING TO BRIGHTON?


FAA INFORMATION EFFECTIVE 01 DECEMBER 2022

Location

FAA Identifier: CO12
Lat/Long: 39-59-00.1700N 104-42-16.1200W
39-59.002833N 104-42.268667W
39.9833806,-104.7044778
(estimated)
Elevation: 5055 ft. / 1541 m (estimated)
Variation: 11E (1985)
From city: 5 miles E of BRIGHTON, CO
Time zone: UTC -7 (UTC -6 during Daylight Saving Time)
Zip code: 80601

Airport Operations

Airport use: Private use. Permission required prior to landing
Activation date: 06/1970
Control tower: no
ARTCC: DENVER CENTER
FSS: DENVER FLIGHT SERVICE STATION
Attendance: UNATNDD
Wind indicator: yes
Segmented circle: yes
Lights: ACTVT MIRL RY 12/30 - 122.9.

Airport Communications

WX ASOS at DEN (7 nm S): PHONE 303-342-1920
WX AWOS-3 at CFO (14 nm SE): 119.025 (303-261-9104)
WX AWOS-3 at EIK (16 nm W): 133.825 (303-604-4339)
WX AWOS-3 at BJC (20 nm W): PHONE 720-887-8067

Nearby radio navigation aids

VOR radial/distance  VOR name  Freq  Var
DVVr317/6.5MILE HIGH VORTAC114.7008E
DENr341/10.4DENVER VOR/DME117.9008E
FQFr337/18.0FALCON VORTAC116.3011E
BJCr067/20.4JEFFCO VOR/DME115.4011E
GLLr180/32.0GILL VOR/DME114.2013E

Airport Services

Fuel available: 100LL
Airframe service: NONE
Powerplant service: NONE

Runway Information

Runway 12/30

Dimensions: 3700 x 50 ft. / 1128 x 15 m
Surface: asphalt
Runway edge lights: medium intensity
RUNWAY 12  RUNWAY 30
Traffic pattern: leftright
Displaced threshold: 331 ft.294 ft.

Airport Ownership and Management from official FAA records

Ownership: Privately-owned
Owner: VAN AIRE SKYPORT CORP
PO BOX 55
BRIGHTON, CO 80601
Manager: BRANDON JEWETT
PO BOX 55
BRIGHTON, CO 80601
Phone 303-521-3238

Airport Operational Statistics

Aircraft based on the field: 89
Single engine airplanes: 85
Multi engine airplanes: 4
    

Additional Remarks

ARPT IN RESIDENTIAL SUBDIVISION. ROADS IN CLOSE PROXIMITY BOTH ENDS OF RWY.
PRIM USE OF RWY IS FOR HOME OWNERS AT ARPT. PPR FOR USE. CTC VANAIRESKYPORT.ORG FOR WAIVER AND INSTRUCTIONS.
RWY 12/30 SINGLE LGT VASI BOTH RWY APCHS.
TPA 5800 FT.
FOR CD CTC DENVER APCH AT 303-342-1916.

Instrument Procedures

There are no published instrument procedures at CO12.

Some nearby airports with instrument procedures:

KDEN - Denver International Airport (7 nm S)
KCFO - Colorado Air and Space Port Airport (14 nm SE)
KEIK - Erie Municipal Airport (16 nm W)
KBKF - Buckley Space Force Base (17 nm S)
KBJC - Rocky Mountain Metro Airport (20 nm W)
 
Loc | Ops | Rwys | IFR | FBO | Links
Com | Nav | Svcs | Stats | Notes

AirBoss

 
Area around CO12 (Van Aire Airport)
 
Road maps at: MapQuest Bing Google
 
Aerial photo
WARNING: Photo may not be current or correct
Aerial photo of CO12 (Van Aire Airport)
Photo by Brandon Jewett.
Taken in the Summer of 2008

Do you have a better or more recent aerial photo of Van Aire Airport that you would like to share? If so, please send us your photo.

 
Sectional chart

 
Airport distance calculator
Flying to Van Aire Airport? Find the distance to fly.

From to CO12

Sunrise and sunset
Times for 10-Dec-2022
 Local
(UTC-7)
 Zulu
(UTC)
Morning civil twilight06:4013:40
Sunrise07:1114:11
Sunset16:3323:33
Evening civil twilight17:0300:03

Current date and time
Zulu (UTC)  10-Dec-2022 08:38:29
Local (UTC-7)  10-Dec-2022 01:38:29
 
METAR
KDEN 
9nm S 
100753Z 28011KT 10SM CLR 04/M14 A3003 RMK AO2 PK WND 30031/0725 SLP155 T00391144
KCFO 
14nm SE 
100815Z AUTO 29005KT 10SM CLR 03/M16 A3005 RMK AO2 T00311161
KEIK 
16nm W 
100815Z AUTO 30003KT 10SM CLR 03/M14 A3003 RMK AO2 T00251145
KBKF 
16nm S 
100758Z 11006KT 10SM CLR M03/M15 A3002 RMK AO2A SLP167 T10271148
KBJC 
19nm W 
100815Z AUTO 22004KT 10SM CLR 01/M13 A3004 RMK AO2
TAF
KDEN 
9nm S 
100555Z 1006/1112 28011G20KT P6SM FEW090 FM100730 20009KT P6SM FEW200 FM101500 24006KT P6SM FEW200 FM101800 VRB05KT P6SM SCT200 FM102100 06007KT P6SM BKN200 FM110200 20011KT P6SM BKN200
KBKF 
16nm S 
091802Z 0918/1024 VRB06KT 9999 FEW140 510073 QNH2989INS TX07/0921Z TNM06/1014Z
KBJC 
19nm W 
100536Z 1006/1106 24012KT P6SM SKC TEMPO 1006/1008 27018G28KT FM100800 20008KT P6SM SKC FM101500 36005KT P6SM SCT200 FM101900 10005KT P6SM BKN200 FM110000 30005KT P6SM BKN200
NOTAMs
Click for the latest NOTAMs
NOTAMs are issued by the DoD/FAA and will open in a separate window not controlled by AirNav.

 

 
 

Would you like to see your business listed on this page?

 If your business provides an interesting product or service to pilots, flight crews, aircraft, or users of the Van Aire Airport, you should consider listing it here.  To start the listing process, click on the button below
 
Add a business
 

Other Pages about Van Aire Airport

www.ahico.com/...
 
Update a link
 
Copyright © AirNav, LLC. All rights reserved. Privacy Policy  Contact